| DS18B20 | SHTC3 | ||||||
|---|---|---|---|---|---|---|---|
| ID | Date d/m/Y & Time | data1 สูง | data2 ต่ำ | data3 นอก | temp pcb | hum pcb | Time |
| 3010 | 16/03/2026 13:07:59 | 31.1  | 30.2  | 31.3  | 30.5  | 67.9  | 13:07 |
| 3009 | 16/03/2026 13:03:17 | 31.1  | 30.2  | 31.1  | 30.5  | 67.9  | 13:03 |
| 3008 | 16/03/2026 12:58:35 | 31.1  | 30.2  | 30.9  | 30.5  | 68.0  | 12:58 |
| 3007 | 16/03/2026 12:53:54 | 31.0  | 30.2  | 30.9  | 30.5  | 68.1  | 12:53 |
| 3006 | 16/03/2026 12:49:10 | 30.9  | 30.2  | 31.1  | 30.4  | 68.1  | 12:49 |
| 3005 | 16/03/2026 12:44:28 | 30.9  | 30.1  | 31.0  | 30.4  | 68.2  | 12:44 |
| 3004 | 16/03/2026 12:39:45 | 30.8  | 30.1  | 30.9  | 30.4  | 68.3  | 12:39 |
| 3003 | 16/03/2026 12:35:03 | 30.8  | 30.1  | 31.2  | 30.4  | 68.4  | 12:35 |
| 3002 | 16/03/2026 12:30:21 | 30.7  | 30.1  | 30.8  | 30.1  | 68.4  | 12:30 |
| 3001 | 16/03/2026 12:25:40 | 30.7  | 30.0  | 30.4  | 30.2  | 68.3  | 12:25 |
| 3000 | 16/03/2026 12:20:58 | 30.7  | 30.0  | 30.6  | 30.2  | 68.4  | 12:20 |
| 2999 | 16/03/2026 12:16:16 | 30.6  | 29.9  | 30.3  | 30.2  | 68.5  | 12:16 |
| 2998 | 16/03/2026 12:11:33 | 30.6  | 29.9  | 30.5  | 30.2  | 68.6  | 12:11 |
| 2997 | 16/03/2026 12:06:51 | 30.6  | 29.9  | 30.3  | 30.2  | 68.5  | 12:06 |
| 2996 | 16/03/2026 12:02:10 | 30.6  | 29.9  | 30.5  | 30.1  | 68.6  | 12:02 |
| 2995 | 16/03/2026 11:57:28 | 30.6  | 29.9  | 30.5  | 30.1  | 68.6  | 11:57 |
| 2994 | 16/03/2026 11:52:46 | 30.5  | 29.8  | 31.3  | 30.1  | 68.6  | 11:52 |
| 2993 | 16/03/2026 11:48:05 | 30.4  | 29.8  | 30.9  | 29.9  | 68.5  | 11:48 |
| 2992 | 16/03/2026 11:43:22 | 30.4  | 29.8  | 30.9  | 29.9  | 68.5  | 11:43 |
| 2991 | 16/03/2026 11:38:40 | 30.4  | 29.7  | 30.9  | 29.9  | 68.6  | 11:38 |
| 2990 | 16/03/2026 11:33:58 | 30.4  | 29.7  | 30.6  | 30.0  | 68.7  | 11:33 |
| 2989 | 16/03/2026 11:29:16 | 30.3  | 29.6  | 30.8  | 30.0  | 68.8  | 11:29 |
| 2988 | 16/03/2026 11:24:34 | 30.2  | 29.6  | 30.9  | 29.9  | 68.7  | 11:24 |
| 2987 | 16/03/2026 11:19:52 | 30.2  | 29.6  | 31.0  | 29.8  | 68.8  | 11:19 |